Theta_e
310 309 311 310 312 309 310 313 311 317 321 319 321 323 326 325 327 326 327 327 328 325 322 322 325 328 330 327 326 329 333 335 334 332 328 318 323 323 324 328 328 331 329 327 331
312 309 310 311 309 311 311 313 312 312 317 321 319 320 324 326 326 326 327 327 326 327 322 320 327 326 328 329 326 329 333 333 331 330 329 321 319 322 326 329 330 331 330 328 329
314 312 308 310 309 312 309 309 313 311 313 318 321 318 320 323 325 326 326 327 327 325 323 322 322 322 325 329 328 327 329 329 329 329 329 329 326 320 325 327 328 329 330 329 329
313 314 312 308 309 311 310 309 309 313 312 315 319 321 319 320 326 323 324 326 327 325 324 324 324 323 321 325 329 330 327 327 326 324 323 327 327 322 321 325 325 327 327 327 328
311 313 313 309 309 309 310 310 307 313 312 314 317 319 320 321 321 321 322 324 326 326 325 324 323 323 323 322 326 330 328 328 327 321 319 319 320 324 321 322 321 322 322 324 328
309 311 313 313 309 309 309 310 310 310 311 312 315 317 319 321 320 320 321 324 324 324 325 325 324 322 322 322 324 322 323 325 327 328 325 325 325 322 324 324 324 322 321 325 327
308 309 312 313 311 309 309 310 310 306 311 310 315 317 318 318 319 320 320 321 323 324 324 325 325 324 322 322 321 323 324 324 324 325 328 328 329 327 325 325 323 323 324 322 323
307 308 311 312 312 310 308 309 310 307 309 309 312 315 316 317 317 319 319 319 322 323 324 325 324 323 322 322 322 324 324 326 322 324 325 325 319 319 326 326 326 326 326 327 323
304 307 309 311 312 311 309 308 309 307 310 310 309 312 313 314 317 318 319 319 319 322 323 323 324 323 321 324 324 324 326 328 326 324 325 326 320 321 321 324 328 329 328 328 328
302 304 308 309 313 311 309 309 309 308 311 310 310 310 309 311 313 318 318 318 320 321 320 322 323 324 324 324 326 325 326 326 325 323 325 325 325 322 323 325 326 326 327 327 327
302 302 305 308 313 312 309 309 310 310 311 310 310 309 308 308 310 313 317 317 319 319 321 321 323 323 322 322 322 323 324 325 324 322 324 323 324 322 321 322 323 324 326 326 326
301 302 303 305 309 312 309 309 309 309 311 309 310 309 309 310 310 311 315 316 316 319 318 319 320 320 320 322 323 320 322 323 322 321 322 323 323 322 321 321 321 322 323 326 326
301 301 303 304 306 310 309 308 309 309 308 308 309 309 309 309 310 311 311 316 316 317 318 319 319 319 320 321 324 322 322 321 323 320 320 321 323 322 321 319 319 320 320 322 326
302 301 302 303 304 309 309 309 307 308 309 308 308 309 309 310 309 310 308 314 315 317 316 317 316 319 319 320 321 324 322 321 322 322 325 320 326 323 321 320 320 320 320 319 321
301 301 302 304 305 309 307 308 306 306 309 308 308 308 309 309 309 310 309 313 313 315 316 317 317 319 320 319 320 322 320 322 323 324 323 322 322 323 321 321 320 319 319 319 320
301 301 302 304 305 308 308 307 305 307 310 308 308 309 310 310 309 311 312 311 311 312 314 314 315 317 318 315 320 320 320 321 321 323 325 323 324 324 323 322 322 320 319 319 320
300 301 302 303 304 306 307 305 306 309 303 308 308 309 309 310 310 311 312 312 311 312 313 312 314 314 317 318 317 319 321 323 325 323 326 321 324 323 322 321 320 319 318 318 319
300 300 302 304 305 306 305 305 309 304 305 306 307 309 309 310 310 311 312 311 311 310 311 312 312 314 314 317 319 321 320 321 323 326 324 319 323 322 321 320 319 318 317 317 318
301 301 305 304 306 306 304 308 309 305 304 307 307 307 309 309 309 310 311 311 310 311 310 311 311 313 316 315 316 318 322 320 321 309 320 320 320 319 318 319 318 317 317 316 317
301 302 305 305 304 304 304 307 301 303 307 307 307 307 308 309 309 310 310 309 310 310 310 310 311 310 314 316 317 319 319 321 319 323 324 320 321 320 320 320 319 320 319 319 318
302 304 304 303 301 304 307 302 302 306 307 308 308 308 307 308 307 310 310 308 309 310 311 312 314 315 313 315 317 319 319 320 320 320 324 324 321 319 320 319 319 319 318 318 317
301 303 303 303 304 302 306 303 305 305 305 306 307 308 308 308 309 307 308 307 307 309 310 311 312 314 314 314 314 317 319 319 321 321 321 321 322 314 317 317 318 317 317 317 316
302 303 306 304 306 304 302 304 305 305 305 306 307 307 308 308 308 307 308 307 309 309 310 310 312 312 315 314 314 316 317 319 319 318 323 324 322 318 318 315 314 315 315 315 315
302 304 302 303 302 303 305 305 305 303 303 303 305 307 308 308 306 308 310 309 309 309 309 310 310 310 312 315 315 318 317 318 319 321 322 322 321 320 318 315 316 315 313 312 314
302 301 300 302 302 303 302 305 305 305 303 303 304 307 307 308 307 308 308 308 308 310 309 311 312 311 310 311 311 312 312 313 319 319 321 321 321 320 320 319 318 317 316 313 314
302 302 299 300 302 303 304 305 302 302 304 303 304 304 303 306 306 307 308 307 304 308 309 310 310 307 307 307 308 309 310 311 314 313 317 319 320 318 318 318 317 317 316 316 316
302 302 302 301 302 303 302 300 302 302 302 302 304 304 303 302 303 304 302 303 305 307 309 309 311 311 309 308 309 312 312 312 312 313 313 316 319 318 319 319 318 317 316 315 316
Wind_Speed
28 27 26 25 24 23 28 26 33 31 28 30 31 30 25 25 23 24 26 23 24 16 13 15 11 10 9 4 5 6 7 14 19 16 7 1 3 2 4 4 7 9 4 5 11
32 30 30 27 26 24 23 28 27 32 29 27 29 31 28 25 23 29 28 24 22 24 14 15 11 10 6 4 4 8 12 19 17 18 13 6 3 2 3 6 8 9 13 9 12
34 33 32 31 28 26 26 28 26 28 29 27 27 30 29 26 23 27 28 27 26 20 19 16 12 9 9 4 6 4 13 15 15 21 25 22 17 4 5 7 12 12 12 14 15
33 35 34 32 31 29 24 26 30 26 27 27 26 27 27 22 11 16 23 24 27 15 17 13 10 8 9 10 8 7 12 12 10 8 9 14 15 14 14 12 4 7 9 14 19
35 33 35 34 33 32 27 27 30 27 27 24 25 25 23 23 25 4 11 29 25 28 17 13 8 7 8 7 6 11 10 13 7 8 8 5 15 16 14 13 14 13 14 14 19
37 34 35 36 35 33 31 28 26 29 26 24 24 25 25 22 22 24 1 20 33 32 32 25 13 8 2 1 8 7 18 9 6 12 7 8 16 7 13 16 17 17 15 15 17
38 36 35 37 35 35 33 30 28 31 27 27 22 24 25 27 18 14 26 11 17 28 28 28 22 15 2 2 8 11 7 9 14 10 7 8 17 15 24 17 15 13 13 15 17
38 36 36 36 37 36 34 32 28 29 28 27 23 21 14 22 19 21 21 21 13 20 22 27 24 16 16 7 2 7 7 15 10 12 8 11 23 18 23 26 29 30 26 19 19
42 36 37 37 38 37 35 32 28 26 24 23 22 17 11 13 29 24 25 24 23 19 18 16 20 11 11 8 4 5 8 23 17 13 5 14 16 13 19 23 27 29 31 29 24
42 44 35 37 41 40 37 32 25 25 24 22 16 9 16 26 21 28 24 25 19 16 11 13 10 3 4 9 12 15 19 17 16 9 11 13 18 18 17 10 23 26 25 25 27
40 41 44 41 37 44 40 33 30 16 32 12 19 9 3 16 20 25 27 20 17 18 13 13 7 12 14 12 19 14 18 18 12 8 7 15 18 20 24 23 26 29 25 26 30
40 39 41 42 39 50 47 46 52 29 18 14 14 15 7 16 12 22 30 22 18 17 16 8 20 25 16 9 17 13 11 14 9 6 7 12 19 21 25 23 29 31 31 34 30
38 41 42 47 36 39 54 55 37 34 9 7 15 25 8 15 7 20 30 31 17 20 16 20 19 15 20 16 14 17 18 9 11 3 9 9 20 25 19 25 30 34 35 35 34
39 42 42 42 39 47 58 52 39 34 6 8 10 10 14 9 5 14 31 25 15 19 19 16 27 15 10 18 18 14 13 12 13 4 7 1 9 19 13 14 15 25 30 35 35
40 43 43 43 40 61 59 52 45 24 9 16 13 12 20 19 12 14 25 22 22 15 15 12 17 13 18 22 21 8 13 19 20 17 11 14 7 18 15 19 20 25 28 31 31
43 43 44 43 42 51 60 54 37 7 8 10 17 19 19 14 8 11 16 18 15 18 19 19 7 13 24 15 13 11 5 2 3 4 8 22 15 12 18 21 21 26 30 26 27
43 43 42 46 48 48 60 45 7 9 8 11 13 19 24 14 10 12 14 17 14 14 24 26 23 18 8 17 21 18 7 2 4 6 9 6 15 22 16 18 20 19 24 23 22
45 39 44 47 39 64 60 19 10 8 11 10 16 21 24 20 13 12 12 14 23 20 10 18 13 26 21 26 17 25 22 9 9 7 12 6 12 9 20 29 32 30 27 24 25
43 39 45 49 43 72 48 19 10 16 11 18 25 23 11 18 11 16 19 15 19 21 14 15 18 6 15 21 23 20 17 25 14 1 5 6 17 9 9 12 16 23 26 29 31
43 39 38 51 50 67 20 9 5 11 20 24 12 15 16 20 14 19 17 18 20 23 21 8 9 19 11 17 15 11 7 6 5 9 13 13 22 14 8 16 17 18 24 26 29
41 24 35 48 45 45 19 5 5 21 31 10 11 13 15 18 20 14 13 6 19 16 27 10 8 1 13 18 21 8 11 9 4 4 11 14 14 18 19 19 19 17 19 17 20
20 5 37 48 13 8 12 14 13 16 9 6 9 12 16 21 17 18 17 18 13 21 24 22 4 10 16 8 11 23 15 17 9 6 6 8 16 2 4 8 16 14 16 18 20
22 8 38 57 12 7 8 13 8 10 8 6 5 6 11 16 10 14 12 11 7 17 11 11 10 10 4 3 8 14 24 23 13 3 15 7 13 9 14 9 11 14 22 21 12
12 6 9 23 19 22 20 13 10 6 5 8 8 12 12 16 3 13 8 5 9 11 13 18 11 13 16 3 2 3 19 22 20 9 10 15 28 30 18 8 12 15 19 18 16
5 5 6 6 10 14 8 8 19 8 5 6 4 9 12 7 3 6 8 5 4 10 21 7 4 10 15 14 12 13 14 12 19 24 14 22 28 34 26 21 25 30 26 23 30
9 9 10 5 25 20 11 11 12 6 4 7 9 11 6 6 6 10 10 5 4 4 15 12 4 8 6 15 15 18 18 20 23 19 19 31 33 36 38 27 26 26 29 36 40
20 24 25 18 11 14 6 9 11 11 8 7 17 9 11 10 11 12 6 5 4 5 6 5 5 3 7 9 11 12 23 21 24 23 20 19 36 39 28 24 28 28 31 35 38
Wind_Direction
239 235 232 235 241 230 225 223 222 223 224 224 229 234 230 234 236 233 231 234 231 232 232 222 225 228 225 229 190 172 205 223 222 215 217 184 217 178 219 201 196 210 207 228 194
237 235 233 230 233 233 227 221 220 222 222 222 223 225 232 228 229 234 232 229 233 231 234 213 211 209 206 203 199 206 225 228 231 236 217 183 184 195 238 214 226 234 226 220 201
239 233 232 231 230 228 228 223 220 218 222 221 220 219 225 230 232 239 233 231 230 230 221 212 208 197 208 196 201 220 234 236 247 251 240 231 242 199 238 240 241 235 220 220 209
239 235 232 229 227 223 227 223 215 222 216 220 219 219 219 217 233 239 238 232 217 209 209 197 190 189 206 210 198 222 241 244 245 221 210 226 241 219 220 249 247 231 234 225 217
240 236 231 228 224 224 220 219 213 217 215 216 217 218 209 204 218 145 205 220 222 220 203 198 183 183 209 221 200 230 232 230 246 237 233 242 235 221 224 242 250 251 255 232 223
237 236 231 226 223 223 220 217 216 213 213 211 213 214 209 220 218 218 283 205 210 214 220 214 196 167 114 110 248 309 240 240 234 232 239 236 252 261 233 237 253 251 244 232 224
237 233 230 226 223 221 218 217 214 214 213 207 206 210 212 218 219 212 224 229 222 208 213 210 207 188 219 11 356 295 257 242 235 230 231 228 252 234 246 236 235 227 229 236 235
236 231 227 224 220 220 218 216 211 211 211 208 209 212 220 222 215 211 215 212 213 217 220 225 223 208 216 219 80 278 263 243 221 202 225 198 260 247 244 241 244 243 242 243 246
236 232 225 221 218 215 215 212 208 206 206 202 202 202 229 215 218 213 208 203 208 210 215 217 199 182 178 169 164 214 275 237 250 203 195 208 261 259 256 242 246 245 243 241 240
231 229 225 214 217 211 208 206 198 191 193 182 190 173 231 216 210 202 206 207 195 194 193 194 206 222 178 185 213 221 222 237 233 193 212 227 245 255 253 242 250 252 248 244 237
227 228 226 221 217 208 199 184 165 175 180 184 190 187 126 201 203 207 205 198 193 189 207 193 212 213 216 219 230 258 234 244 239 223 217 243 249 255 260 253 255 255 254 247 241
227 225 225 227 219 199 195 181 185 192 158 180 178 184 122 164 168 205 202 198 202 210 203 194 224 224 218 230 221 211 205 226 253 227 224 262 266 264 261 255 250 252 253 251 249
225 221 218 222 225 215 193 193 176 162 133 183 162 192 167 172 183 193 191 202 207 215 202 226 232 229 220 220 226 204 213 190 237 197 236 278 274 267 254 248 249 250 248 249 246
221 217 213 218 221 220 184 182 171 163 146 179 172 187 194 174 229 196 199 193 219 223 212 240 239 235 205 227 218 240 213 221 235 253 256 164 285 271 265 243 240 249 245 245 245
223 216 209 208 215 188 180 174 172 163 194 163 165 178 171 174 138 194 196 198 216 199 196 217 213 199 213 215 210 255 238 212 221 233 246 236 260 267 265 260 258 256 248 246 245
217 212 207 205 215 174 171 167 167 144 195 166 152 170 169 180 170 147 176 202 224 228 231 241 221 224 228 230 224 156 126 283 149 227 236 235 218 246 253 256 256 253 252 251 249
211 208 204 202 206 187 169 154 154 190 158 158 170 168 174 171 169 179 175 186 188 193 217 223 228 224 221 211 206 226 169 239 226 207 240 240 218 240 256 249 253 257 255 251 252
209 207 206 202 198 169 160 159 182 131 170 168 160 161 182 161 199 185 171 192 211 213 216 214 217 218 212 220 205 212 210 210 227 214 246 141 232 251 225 245 247 247 256 262 260
205 206 198 196 192 167 160 180 167 165 160 154 148 166 170 184 190 187 208 202 206 207 206 205 230 194 199 214 218 210 219 225 266 338 295 228 258 271 216 241 247 248 249 252 259
196 196 201 191 179 165 165 155 122 141 138 145 146 177 177 178 177 188 188 213 216 207 216 220 247 225 202 218 233 224 217 201 210 226 241 236 253 251 214 239 242 255 255 258 265
185 184 185 193 185 172 173 116 131 148 139 158 139 146 171 175 192 192 197 187 205 188 204 229 237 148 193 203 207 190 218 217 228 209 229 244 250 255 250 232 234 236 253 266 271
174 153 176 178 191 183 162 143 139 144 133 110 101 121 155 168 184 193 205 213 199 196 201 208 256 250 245 262 281 219 213 219 231 221 236 269 266 232 237 263 240 245 269 289 289
138 113 164 172 178 156 114 120 121 143 142 124 118 139 157 164 181 190 199 209 167 196 195 177 223 239 259 262 225 229 219 216 241 282 209 218 252 226 259 241 235 256 269 267 289
136 137 137 168 148 137 127 135 122 68 77 73 107 124 124 166 45 178 177 206 201 189 203 189 221 216 229 208 42 193 223 224 222 243 235 239 263 261 247 264 292 284 269 269 286
149 81 102 140 156 129 119 119 129 134 70 111 92 150 138 140 105 149 179 173 186 200 185 200 224 234 253 285 296 263 271 266 242 234 228 242 245 260 253 253 260 266 280 290 283
114 140 92 113 144 123 95 143 125 103 102 141 139 140 111 137 168 179 168 186 152 126 186 200 256 226 243 248 255 261 255 256 234 234 261 252 258 258 264 274 265 263 262 265 268
140 147 131 150 146 137 147 158 144 123 41 75 132 114 106 126 100 111 88 88 135 153 167 177 198 213 263 223 237 254 243 240 245 240 222 251 247 267 274 264 263 266 265 266 268